Location: La Trinit�
(48.1620°N, 3.4512°W)
Time: 03:06:04
(UTC+00:00)

SPOT 5 - Pass Details

Date: 08 May 2021
Orbit: 623 x 814 km, 98.2° (Epoch: 13 June)

Event Time Altitude Azimuth Distance (km) Brightness Sun altitude
Exits shadow 22:32:01 24° 213° (SSW) 1,517 4.2 -20.9°
Maximum altitude 22:34:24 39° 264° (W) 1,157 4.0 -21.1°
Drops below altitude 10° 22:39:17 10° 332° (NNW) 2,371 6.7 -21.4°
Sets 22:41:50 0° 340° (NNW) 3,324 7.8 -21.6°
